Regional Weather Roundup
Issued by NWS

Home | Current Version | Previous Version | Graphics & Text | Print | Product List | Glossary On
Versions: 1 2 3 4 5 6 7 8 9 10 11 12 13 14 15 16 17 18 19 20 21 22 23 24 25 26 27 28 29 30 31 32 33 34 35 36 37 38 39 40 41 42 43 44 45 46 47 48 49 50
000
ASUS43 KIND 040809
RWRIN

WEATHER ROUNDUP FOR INDIANA
NATIONAL WEATHER SERVICE INDIANAPOLIS IN
300 AM EST WED MAR 04 2015

NOTE: "FAIR" INDICATES FEW OR NO CLOUDS BELOW 12,000 FEET WITH NO
SIGNIFICANT WEATHER AND/OR OBSTRUCTIONS TO VISIBILITY.

* - STATION DOES NOT REPORT WEATHER SUCH AS PRECIPITATION OR FOG.

+ - STATION NOT QUALITY CONTROLLED BY THE NATIONAL WEATHER SERVICE.
    USE DATA WITH CAUTION...ESPECIALLY DEWPOINT AND RELATIVE
    HUMIDITY OBSERVATIONS.

INZ001>003-010>013-019-020-040900-
NORTHWEST INDIANA

CITY           SKY/WX    TMP DP  RH WIND       PRES   REMARKS
GARY /AIRPORT/ CLOUDY    33  23  65 W9        29.90R WCI  25
KNOX *+          N/A     32  16  51 NW7       29.88R WCI  26
LA PORTE +     CLOUDY    32  26  80 CALM      29.87F
MICHIGAN CITY+ CLOUDY    32  23  69 W8        29.89S WCI  25
MONTICELLO +   CLOUDY    32  29  90 W6        29.89R WCI  26
RENSSELAER +   CLOUDY    32  30  93 W7        29.91R WCI  26
VALPARAISO     CLOUDY    29  23  78 W6        29.89R WCI  23

$$

LMZ046-743>745-040900-
SOUTHERN LAKE MICHIGAN

STATION/POSITION TIME  TEMP WIND        PRES
                       AIR  DIR/SP/G
                 (UTC) (F)  (DEG/KT/KT) (MB)
MICHIGAN CITY    0800   31  250/  9/ 11   N/A

$$

INZ004-005-014>016-021>024-040900-
NORTH CENTRAL INDIANA

CITY           SKY/WX    TMP DP  RH WIND       PRES   REMARKS
GOSHEN         CLOUDY    30  24  78 NW10      29.87R WCI  21
LOGANSPORT +   CLOUDY    32  30  93 W6        29.90R WCI  26
PERU/GRISSOM   CLOUDY    32  30  93 W7        29.87R WCI  26
ROCHESTER +    CLOUDY    34  32  93 NW7       29.88R WCI  28
SOUTH BEND     CLOUDY    30  25  81 W7        29.89R WCI  23
WARSAW +       CLOUDY    32  28  86 NW9       29.87R WCI  24

$$

INZ006>009-017-018-025>027-040900-
NORTHEAST INDIANA

CITY           SKY/WX    TMP DP  RH WIND       PRES   REMARKS
ANGOLA *+      CLOUDY    30  23  74 NW7       29.83F WCI  23
AUBURN +       CLOUDY    32  27  80 NW7       29.86S WCI  26
FORT WAYNE     CLOUDY    33  30  88 W8        29.86S WCI  26
HUNTINGTON +   CLOUDY    33  27  81 W7        29.87S WCI  26

$$

INZ028-029-035-036-043>045-051>053-040900-
WEST CENTRAL INDIANA

CITY           SKY/WX    TMP DP  RH WIND       PRES   REMARKS
CRAWFORDSVL +  CLOUDY    32  25  76 NW8       29.90R WCI  24
GREENCASTLE +  CLOUDY    34  30  86 CALM      29.90F
LAFAYETTE      CLOUDY    32  27  81 NW6       29.90S WCI  26
TERRE HAUTE    CLOUDY    34  32  92 NW3       29.91F

$$

INZ030>032-037>040-046>048-054>057-064-065-040900-
CENTRAL INDIANA

CITY           SKY/WX    TMP DP  RH WIND       PRES   REMARKS
CP ATTERBURY + LGT RAIN  36  34  93 CALM      29.91R
FRANKFORT +    CLOUDY    33  29  86 W9        29.90S WCI  25
GREENWOOD *+   CLOUDY    34  30  86 NW3       29.88F
INDIANAPOLIS   LGT RAIN  34  30  85 NW9       29.88F WCI  27
-EAGLE CREEK   CLOUDY    33  30  88 NW6       29.88F WCI  28
KOKOMO *+      CLOUDY    34  28  80 W7        29.88F WCI  28
MARION +       CLOUDY    32  30  92 W10       29.89S WCI  24
MT COMFORT *+  CLOUDY    34 N/A N/A NW5       29.89S WCI  30
SHELBYVILLE    CLOUDY    36  32  85 NW7       29.88F
ZIONSVILLE +   CLOUDY    33  30  86 NW5       29.89F WCI  29

$$

INZ033-034-041-042-049-050-058-059-040900-
EAST CENTRAL INDIANA

CITY           SKY/WX    TMP DP  RH WIND       PRES   REMARKS
MUNCIE         CLOUDY    34  30  85 W7        29.88S WCI  28

$$

INZ060-061-067>069-081>083-085>088-040900-
SOUTHWEST INDIANA

CITY           SKY/WX    TMP DP  RH WIND       PRES   REMARKS
EVANSVILLE     RAIN      42  40  92 NE3       29.92S FOG
HUNTINGBURG *+ CLOUDY    39  37  93 NW7       29.93R
WASHINGTON +   DRIZZLE   35  32  89 NW3       29.90F

$$

INZ062-063-066-070>080-084-089>092-040900-
SOUTH CENTRAL AND SOUTHEAST INDIANA

CITY           SKY/WX    TMP DP  RH WIND       PRES   REMARKS
BEDFORD +      LGT SNOW  37  36  93 NW5       29.91R
BLOOMINGTON    LGT RAIN  35  34  96 CALM      29.89S FOG
NORTH VERNON + HVY RAIN  37  37 100 NW5       29.91R
SEYMOUR +      SNOW      37  36  93 CALM      29.91R VSB 1/2

$$



USA.gov is the U.S. government's official web portal to all federal, state and local government web resources and services.